Flag for Brazil Weather past 2 weeks in Volta Redonda, Rio de Janeiro, Brazil

Now
66 °F

More clouds than sun.


Feels Like: 66 °F
Forecast: 55 / 68 °F
Wind: No wind

Location: Galeao

Current Time: Jul 6, 2015 at 12:46:06 PM

Latest Report: Jul 6, 2015 at 12:00 PM


Visibility: 5 mi

Pressure: 30.21 "Hg

Humidity: 83%

Dew point: 61 °F

Location of Volta RedondaLocation

Historic Weather in Volta Redonda — Graph

°F

Volta Redonda temperature yesterday

Maximum temperature yesterday: 68 °F (at 12:00 PM)
Minimum temperature yesterday: 63 °F (at 1:00 AM)
Average temperature yesterday: 64 °F

Past Weeks' High & Low Weather Summary

 TemperatureHumidityPressure
High86 °F (Jun 23, 3:00 PM)100% (Jun 23, 8:00 AM)30.51 "Hg (Jun 23, 8:00 AM)
Low59 °F (Jun 26, 3:00 AM)43% (Jun 23, 3:00 PM)29.86 "Hg (Jul 4, 12:00 AM)
Average69 °F79%30.19 "Hg
* Reported Jun 21 11:00 AM — Jul 6 11:00 AM, Volta Redonda, Weather by CustomWeather, © 2015

Note: Actual official high and low records may vary slightly from our data, if they occured in-between our weather recording intervals... More about our weather records

Advertising

Volta Redonda weather history for previous 24 hours

 ConditionsComfort  
Time TempWeatherWind HumidityBarometerVisibility
11:00 AM
Mon, Jul 6
66 °FMostly cloudy.No wind83%30.24 "Hg5 mi
10:00 AM66 °FOvercast.No wind78%30.24 "Hg5 mi
9:00 AM64 °FOvercast.No wind88%30.24 "Hg5 mi
8:00 AM64 °FMore clouds than sun.No wind88%30.21 "Hg5 mi
7:00 AM64 °FBroken clouds.No wind78%30.18 "Hg4 mi
6:00 AM64 °FBroken clouds.No wind88%30.15 "Hg5 mi
5:00 AM64 °FPartly cloudy.No wind83%30.15 "Hg6 mi
4:00 AM64 °FPartly cloudy.No wind83%30.15 "Hg6 mi
3:00 AM64 °FPartly cloudy.No wind83%30.18 "Hg6 mi
2:00 AM64 °FPartly cloudy.3 mph83%30.18 "Hg6 mi
1:00 AM64 °FPartly cloudy.2 mph83%30.18 "Hg6 mi
12:00 AM64 °FPartly cloudy.3 mph88%30.21 "Hg6 mi
11:00 PM
Sun, Jul 5
66 °FPartly cloudy.1 mph78%30.21 "HgN/A
10:00 PM64 °FPartly cloudy.2 mph83%30.18 "HgN/A
9:00 PM64 °FPartly cloudy.2 mph88%30.18 "HgN/A
8:00 PM64 °FPartly cloudy.No wind83%30.18 "HgN/A
7:00 PM64 °FPassing clouds.3 mph78%30.18 "HgN/A
6:00 PM64 °FPassing clouds.3 mph83%30.18 "HgN/A
5:00 PM64 °FLight rain. Passing clouds.6 mph83%30.18 "Hg4 mi
4:00 PM66 °FPartly sunny.6 mph78%30.18 "HgN/A
3:00 PM66 °FPartly sunny.5 mph73%30.15 "HgN/A
2:00 PM66 °FBroken clouds.5 mph73%30.15 "HgN/A
1:00 PM66 °FBroken clouds.5 mph73%30.18 "HgN/A
12:00 PM68 °FPartly sunny.10 mph69%30.21 "HgN/A
Weather by CustomWeather, © 2015

See weather overviewHow to use our weather pages